• In Belgium
  • List of Countries
  • For 7 days
  • Water Temperature
  • Satellite Maps
  • Weather Map
  • Weather Widgets
  • user-avatar
    Login

    Hourly Weather Canberra

    Today, 27 June, Tuesday

    Time Temperature Precipitation Wind Pressure Humidity
    00:00 +2°C° 0 mm 1 mps 714 mmHg 94%
    01:00 +1°C° 0 mm 1 mps 714 mmHg 94%
    02:00 +1°C° 0 mm 1 mps 714 mmHg 95%
    03:00 +1°C° 0 mm 1 mps 714 mmHg 96%
    04:00 0°C° 0 mm 1 mps 714 mmHg 97%
    05:00 0°C° 0 mm 1 mps 714 mmHg 97%
    06:00 0°C° 0 mm 1 mps 714 mmHg 97%
    07:00 -2°C° 0 mm 0 mps 714 mmHg 97%
    08:00 +3°C° 0 mm 1 mps 714 mmHg 89%
    09:00 +6°C° 0 mm 1 mps 715 mmHg 80%
    10:00 +9°C° 0 mm 1 mps 715 mmHg 71%
    11:00 +10°C° 0 mm 1 mps 715 mmHg 66%
    12:00 +11°C° 0 mm 1 mps 715 mmHg 60%
    13:00 +12°C° 0 mm 1 mps 714 mmHg 55%
    14:00 +11°C° 0 mm 1 mps 714 mmHg 60%
    15:00 +11°C° 0 mm 1 mps 714 mmHg 65%
    16:00 +9°C° 0 mm 0 mps 713 mmHg 70%
    17:00 +7°C° 0 mm 0 mps 713 mmHg 76%
    18:00 +6°C° 0 mm 0 mps 713 mmHg 83%
    19:00 +4°C° 0 mm 0 mps 713 mmHg 90%
    20:00 +5°C° 0 mm 1 mps 713 mmHg 91%
    21:00 +5°C° 0 mm 1 mps 713 mmHg 93%
    22:00 +5°C° 0 mm 1 mps 713 mmHg 94%
    23:00 +5°C° 0 mm 1 mps 713 mmHg 95%

    Tomorrow, 28 June, Wednesday

    Time Temperature Precipitation Wind Pressure Humidity
    00:00 +5°C° 0 mm 1 mps 713 mmHg 97%
    01:00 +5°C° 0 mm 1 mps 713 mmHg 98%
    02:00 +5°C° 0 mm 1 mps 713 mmHg 98%
    03:00 +5°C° 0 mm 1 mps 712 mmHg 98%
    04:00 +4°C° 0 mm 0 mps 712 mmHg 98%
    05:00 +3°C° 0 mm 0 mps 712 mmHg 98%
    06:00 +3°C° 0 mm 0 mps 712 mmHg 98%
    07:00 +2°C° 0 mm 0 mps 712 mmHg 98%
    08:00 +5°C° 0 mm 1 mps 712 mmHg 91%
    09:00 +8°C° 0 mm 1 mps 713 mmHg 85%
    10:00 +10°C° 0 mm 1 mps 714 mmHg 78%
    11:00 +10°C° 0.1 mm 1 mps 713 mmHg 74%
    12:00 +11°C° 0.1 mm 1 mps 712 mmHg 70%
    13:00 +11°C° 0.1 mm 1 mps 712 mmHg 66%
    14:00 +11°C° 0 mm 1 mps 712 mmHg 65%
    15:00 +11°C° 0 mm 1 mps 712 mmHg 64%
    16:00 +10°C° 0 mm 2 mps 711 mmHg 63%
    17:00 +9°C° 0 mm 1 mps 711 mmHg 73%
    18:00 +7°C° 0 mm 1 mps 711 mmHg 83%
    19:00 +5°C° 0 mm 1 mps 711 mmHg 93%
    20:00 +4°C° 0 mm 1 mps 711 mmHg 93%
    21:00 +4°C° 0 mm 1 mps 712 mmHg 94%
    22:00 +3°C° 0 mm 1 mps 712 mmHg 95%
    23:00 +3°C° 0 mm 1 mps 711 mmHg 95%

    Day after tomorrow, 29 June, Thursday

    Time Temperature Precipitation Wind Pressure Humidity
    00:00 +2°C° 0 mm 1 mps 711 mmHg 95%
    01:00 +2°C° 0 mm 1 mps 711 mmHg 95%
    02:00 +2°C° 0 mm 1 mps 711 mmHg 94%
    03:00 +2°C° 0 mm 1 mps 711 mmHg 94%
    04:00 +2°C° 0 mm 1 mps 710 mmHg 93%
    05:00 +2°C° 0 mm 1 mps 710 mmHg 93%
    06:00 +2°C° 0 mm 1 mps 711 mmHg 92%
    07:00 +1°C° 0 mm 1 mps 711 mmHg 91%
    08:00 +4°C° 0 mm 1 mps 711 mmHg 81%
    09:00 +7°C° 0 mm 1 mps 712 mmHg 71%
    10:00 +9°C° 0 mm 1 mps 712 mmHg 61%
    11:00 +10°C° 0 mm 2 mps 711 mmHg 55%
    12:00 +12°C° 0 mm 2 mps 711 mmHg 50%
    13:00 +12°C° 0 mm 3 mps 710 mmHg 45%
    14:00 +12°C° 0 mm 3 mps 710 mmHg 49%
    15:00 +11°C° 0 mm 3 mps 710 mmHg 53%
    16:00 +10°C° 0 mm 3 mps 710 mmHg 57%
    17:00 +9°C° 0 mm 3 mps 710 mmHg 65%
    18:00 +7°C° 0 mm 3 mps 710 mmHg 74%
    19:00 +4°C° 0 mm 3 mps 711 mmHg 82%
    20:00 +4°C° 0 mm 3 mps 711 mmHg 84%
    21:00 +5°C° 0 mm 2 mps 711 mmHg 87%
    22:00 +4°C° 0 mm 2 mps 711 mmHg 89%
    23:00 +4°C° 0 mm 2 mps 711 mmHg 89%

    30 June, Friday

    Time Temperature Precipitation Wind Pressure Humidity
    00:00 +4°C° 0 mm 2 mps 711 mmHg 90%
    01:00 +4°C° 0 mm 2 mps 712 mmHg 90%
    02:00 +3°C° 0 mm 2 mps 712 mmHg 91%
    03:00 +2°C° 0 mm 2 mps 712 mmHg 92%
    04:00 +2°C° 0 mm 2 mps 712 mmHg 92%
    05:00 +1°C° 0 mm 2 mps 713 mmHg 91%
    06:00 -1°C° 0 mm 2 mps 713 mmHg 90%
    07:00 -2°C° 0 mm 2 mps 713 mmHg 89%
    08:00 +1°C° 0 mm 2 mps 714 mmHg 77%
    09:00 +3°C° 0 mm 2 mps 715 mmHg 65%
    10:00 +4°C° 0 mm 3 mps 716 mmHg 53%
    11:00 +5°C° 0 mm 3 mps 716 mmHg 49%
    12:00 +8°C° 0 mm 3 mps 716 mmHg 46%
    13:00 +9°C° 0 mm 3 mps 715 mmHg 42%
    14:00 +8°C° 0 mm 3 mps 715 mmHg 44%
    15:00 +8°C° 0 mm 2 mps 716 mmHg 46%
    16:00 +8°C° 0 mm 2 mps 716 mmHg 48%
    17:00 +5°C° 0 mm 2 mps 716 mmHg 58%
    18:00 +3°C° 0 mm 1 mps 716 mmHg 69%
    19:00 +1°C° 0 mm 1 mps 716 mmHg 79%
    20:00 +1°C° 0 mm 1 mps 717 mmHg 81%
    21:00 0°C° 0 mm 1 mps 717 mmHg 83%
    22:00 -2°C° 0 mm 2 mps 718 mmHg 84%
    23:00 -2°C° 0 mm 2 mps 718 mmHg 86%

    1 July, Saturday

    Time Temperature Precipitation Wind Pressure Humidity
    00:00 -2°C° 0 mm 2 mps 718 mmHg 87%
    01:00 -2°C° 0 mm 2 mps 717 mmHg 89%
    02:00 0°C° 0 mm 1 mps 717 mmHg 89%
    03:00 -1°C° 0 mm 1 mps 717 mmHg 90%
    04:00 -1°C° 0 mm 1 mps 717 mmHg 91%
    05:00 -1°C° 0 mm 1 mps 718 mmHg 91%
    06:00 -1°C° 0 mm 1 mps 718 mmHg 90%
    07:00 -1°C° 0 mm 1 mps 718 mmHg 90%
    08:00 +2°C° 0 mm 1 mps 719 mmHg 77%
    09:00 +6°C° 0 mm 1 mps 719 mmHg 64%
    10:00 +8°C° 0 mm 0 mps 719 mmHg 51%
    11:00 +9°C° 0 mm 0 mps 719 mmHg 47%
    12:00 +11°C° 0 mm 1 mps 718 mmHg 43%
    13:00 +12°C° 0 mm 1 mps 718 mmHg 39%
    14:00 +12°C° 0 mm 1 mps 717 mmHg 43%
    15:00 +11°C° 0 mm 1 mps 717 mmHg 48%
    16:00 +10°C° 0 mm 1 mps 717 mmHg 53%
    17:00 +7°C° 0 mm 1 mps 717 mmHg 65%
    18:00 +3°C° 0 mm 1 mps 716 mmHg 78%
    19:00 0°C° 0 mm 1 mps 716 mmHg 90%
    20:00 0°C° 0 mm 1 mps 716 mmHg 91%
    21:00 0°C° 0 mm 1 mps 716 mmHg 92%
    22:00 0°C° 0 mm 1 mps 716 mmHg 93%
    23:00 -1°C° 0 mm 1 mps 716 mmHg 94%

    2 July, Sunday

    Time Temperature Precipitation Wind Pressure Humidity
    00:00 -1°C° 0 mm 1 mps 716 mmHg 95%
    01:00 -2°C° 0 mm 1 mps 715 mmHg 96%
    02:00 -2°C° 0 mm 1 mps 715 mmHg 96%
    03:00 -2°C° 0 mm 1 mps 715 mmHg 96%
    04:00 -2°C° 0 mm 1 mps 715 mmHg 95%
    05:00 -2°C° 0 mm 1 mps 715 mmHg 94%
    06:00 -1°C° 0 mm 1 mps 715 mmHg 93%
    07:00 -1°C° 0 mm 1 mps 715 mmHg 91%
    08:00 +2°C° 0 mm 1 mps 715 mmHg 78%
    09:00 +6°C° 0 mm 1 mps 716 mmHg 64%
    10:00 +8°C° 0 mm 2 mps 716 mmHg 50%
    11:00 +10°C° 0 mm 2 mps 715 mmHg 47%
    12:00 +12°C° 0 mm 2 mps 715 mmHg 43%
    13:00 +12°C° 0 mm 3 mps 714 mmHg 39%
    14:00 +13°C° 0 mm 2 mps 714 mmHg 43%
    15:00 +12°C° 0 mm 2 mps 713 mmHg 48%
    16:00 +10°C° 0 mm 2 mps 713 mmHg 52%
    17:00 +8°C° 0 mm 1 mps 713 mmHg 65%
    18:00 +6°C° 0 mm 1 mps 713 mmHg 77%
    19:00 +3°C° 0 mm 1 mps 713 mmHg 89%
    20:00 +3°C° 0 mm 1 mps 713 mmHg 90%
    21:00 +2°C° 0 mm 1 mps 713 mmHg 90%
    22:00 +2°C° 0 mm 1 mps 713 mmHg 91%
    23:00 +2°C° 0 mm 1 mps 712 mmHg 91%
    Show more